Weather History for Rome Ciampino, Italy

Change the Weather History Date:

Wednesday, November 28, 2012

  Actual Average Record
Temperature  
Mean Temperature 57 °F -  
Max Temperature 64 °F 55 °F 69 °F (2014)
Min Temperature 50 °F 39 °F 30 °F (2013)
Degree Days  
Heating Degree Days 8    
Growing Degree Days 7 (Base 50)    
Moisture  
Dew Point 54 °F    
Average Humidity 86    
Maximum Humidity 94    
Minimum Humidity 72    
Precipitation  
Precipitation 0.00 in 0.15 in - ()
Sea Level Pressure  
Sea Level Pressure 29.38 in    
Wind  
Wind Speed 20 mph ()    
Max Wind Speed 36 mph    
Max Gust Speed 50 mph    
Visibility 5.2 miles    
Events Rain , Thunderstorm    
Averages and records for this station are not official NWS values.
T = Trace of Precipitation, MM = Missing Value Source: Averaged Metar Reports

Daily Weather History Graph

Daily Weather History Graph

Search for Another Location

Airport:

Trip Planner

Search our weather history database for the weather conditions in past years. The results will help you decide how hot, cold, wet, or windy it might be!

Date:

Astronomy

Nov. 28, 2012 Rise Set
Actual Time 7:14 AM CET 4:40 PM CET
Civil Twilight 6:43 AM CET 5:11 PM CET
Nautical Twilight 6:09 AM CET 5:45 PM CET
Astronomical Twilight 5:35 AM CET 6:19 PM CET
Moon 4:42 PM CET (11/28) 6:57 AM CET (11/28)
Length of Visible Light 10h 27m
Length of Day
9h 26m
Full, 100% of the Moon is Illuminated
Nov 28
Full
Nov 28
Full
Dec 6
Last Quarter
Dec 13
New
Dec 20
First Quarter

Hourly Weather History & Observations

Time (CET) Temp. Dew Point Humidity Pressure Visibility Wind Dir Wind Speed Gust Speed Precip Events Conditions
12:15 AM 62.6 °F 60.8 °F 94% 29.65 in 6.2 mi SE 26.5 mph 39.1 mph N/A Rain Light Rain
12:45 AM 62.6 °F 60.8 °F 94% 29.62 in 6.2 mi SE 25.3 mph - N/A Rain Light Rain
1:15 AM 62.6 °F 59.0 °F 88% 29.62 in 6.2 mi SSE 25.3 mph - N/A   Light Drizzle
1:45 AM 64.4 °F 59.0 °F 83% 29.59 in 6.2 mi SSE 26.5 mph 39.1 mph N/A   Light Drizzle
2:15 AM 62.6 °F 59.0 °F 88% 29.59 in 6.2 mi SE 27.6 mph 40.3 mph N/A   Light Drizzle
2:45 AM 62.6 °F 59.0 °F 88% 29.59 in 6.2 mi SE 25.3 mph 36.8 mph N/A   Light Drizzle
3:15 AM 64.4 °F 59.0 °F 83% 29.56 in 6.2 mi SE 23.0 mph 34.5 mph N/A   Mostly Cloudy
3:45 AM 64.4 °F 59.0 °F 83% 29.53 in 6.2 mi SE 24.2 mph 38.0 mph N/A   Light Drizzle
4:15 AM 62.6 °F 59.0 °F 88% 29.53 in 6.2 mi SE 23.0 mph - N/A Rain Light Rain
4:45 AM 62.6 °F 59.0 °F 88% 29.50 in 6.2 mi SE 25.3 mph - N/A Rain Light Rain
5:15 AM 64.4 °F 59.0 °F 83% 29.47 in 6.2 mi SE 21.9 mph 35.7 mph N/A   Mostly Cloudy
5:45 AM 64.4 °F 59.0 °F 83% 29.44 in 6.2 mi SE 23.0 mph 36.8 mph N/A   Mostly Cloudy
6:15 AM 64.4 °F 57.2 °F 77% 29.44 in 6.2 mi SE 21.9 mph - N/A   Light Drizzle
6:45 AM 62.6 °F 57.2 °F 82% 29.44 in 6.2 mi SE 23.0 mph 34.5 mph N/A   Light Drizzle
7:15 AM 62.6 °F 55.4 °F 77% 29.39 in 6.2 mi ESE 24.2 mph 36.8 mph N/A   Mostly Cloudy
7:45 AM 62.6 °F 53.6 °F 72% 29.39 in 6.2 mi ESE 25.3 mph 39.1 mph N/A Rain Light Rain
8:15 AM 62.6 °F 57.2 °F 82% 29.36 in 5.0 mi ESE 26.5 mph 43.7 mph N/A Rain Light Rain
8:45 AM 62.6 °F 59.0 °F 88% 29.33 in 5.0 mi SE 32.2 mph 47.2 mph N/A Rain Light Rain
9:15 AM 62.6 °F 59.0 °F 88% 29.30 in 5.0 mi SE 28.8 mph 41.4 mph N/A Rain Light Rain
9:45 AM 64.4 °F 60.8 °F 88% 29.33 in 5.0 mi SE 31.1 mph 49.5 mph N/A Rain Light Rain
10:15 AM 64.4 °F 62.6 °F 94% 29.30 in 5.0 mi SSE 23.0 mph 41.4 mph N/A Rain Light Rain
10:45 AM 64.4 °F 60.8 °F 88% 29.30 in 0.3 mi SSE 35.7 mph 49.5 mph N/A Rain , Thunderstorm Thunderstorms and Rain
11:15 AM 57.2 °F 53.6 °F 88% 29.30 in 5.0 mi South 23.0 mph - N/A Rain , Thunderstorm Light Thunderstorms and Rain
11:45 AM 62.6 °F 60.8 °F 94% 29.30 in 5.0 mi South 24.2 mph 38.0 mph N/A   Mostly Cloudy
12:15 PM 60.8 °F 59.0 °F 94% 29.27 in 2.5 mi SSW 23.0 mph 36.8 mph N/A Rain Light Rain Showers
12:45 PM 60.8 °F 57.2 °F 88% 29.27 in 6.2 mi SSW 27.6 mph 40.3 mph N/A   Mostly Cloudy
1:15 PM 57.2 °F 53.6 °F 88% 29.27 in 3.7 mi SSW 17.3 mph - N/A Rain Light Rain
1:45 PM 55.4 °F 53.6 °F 94% 29.30 in 1.9 mi SSW 19.6 mph 43.7 mph N/A Rain Light Rain Showers
2:15 PM 55.4 °F 51.8 °F 88% 29.27 in 5.0 mi SSW 13.8 mph - N/A   Mostly Cloudy
2:45 PM 55.4 °F 51.8 °F 88% 29.27 in 5.0 mi South 15.0 mph - N/A Rain Light Rain
3:15 PM 55.4 °F 51.8 °F 88% 29.30 in 5.0 mi South 16.1 mph - N/A Rain Light Rain
3:45 PM 57.2 °F 48.2 °F 72% 29.30 in 5.0 mi SSW 15.0 mph 26.5 mph N/A Rain Light Rain
4:15 PM 55.4 °F 48.2 °F 77% 29.30 in 5.0 mi South 13.8 mph - N/A Rain Light Rain
4:45 PM 50.0 °F 46.4 °F 87% 29.30 in 5.0 mi South 13.8 mph - N/A Rain , Thunderstorm Light Thunderstorms and Rain
5:15 PM 51.8 °F 48.2 °F 88% 29.30 in 3.7 mi South 11.5 mph - N/A Rain , Thunderstorm Light Thunderstorms and Rain
5:45 PM 51.8 °F 48.2 °F 88% 29.30 in 5.0 mi South 11.5 mph - N/A Rain , Thunderstorm Light Thunderstorms and Rain
6:15 PM 51.8 °F 46.4 °F 82% 29.30 in 5.0 mi South 13.8 mph 41.4 mph N/A Rain , Thunderstorm Light Thunderstorms and Rain
6:45 PM 51.8 °F 46.4 °F 82% 29.30 in 5.0 mi SSE 11.5 mph - N/A Rain , Thunderstorm Light Thunderstorms and Rain
7:15 PM 50.0 °F 46.4 °F 87% 29.30 in 5.0 mi SSE 12.7 mph 27.6 mph N/A Rain , Thunderstorm Light Thunderstorms and Rain
7:45 PM 50.0 °F 46.4 °F 87% 29.30 in 5.0 mi South 10.4 mph - N/A Rain , Thunderstorm Light Thunderstorms and Rain
8:15 PM 51.8 °F 48.2 °F 88% 29.30 in 5.0 mi South 11.5 mph - N/A Rain , Thunderstorm Light Thunderstorms and Rain
8:45 PM 51.8 °F 48.2 °F 88% 29.30 in 5.0 mi South 13.8 mph - N/A Thunderstorm Thunderstorm
9:15 PM 51.8 °F 48.2 °F 88% 29.30 in 5.0 mi South 10.4 mph - N/A Rain , Thunderstorm Light Thunderstorms and Rain
9:45 PM 51.8 °F 48.2 °F 88% 29.30 in 5.0 mi South 16.1 mph - N/A Rain , Thunderstorm Light Thunderstorms and Rain
10:15 PM 51.8 °F 46.4 °F 82% 29.33 in 5.0 mi South 11.5 mph - N/A Rain , Thunderstorm Light Thunderstorms and Rain
10:45 PM 51.8 °F 46.4 °F 82% 29.33 in 5.0 mi South 11.5 mph - N/A Rain , Thunderstorm Light Thunderstorms and Rain
11:15 PM 51.8 °F 48.2 °F 88% 29.33 in 5.0 mi South 12.7 mph - N/A Rain , Thunderstorm Light Thunderstorms and Rain
11:45 PM 51.8 °F 48.2 °F 88% 29.33 in 5.0 mi South 13.8 mph 25.3 mph N/A Rain , Thunderstorm Light Thunderstorms and Rain